Weather reports worldwide

Advertisment
Donna Nook RAF, United Kingdom (3385): temperature & dewpoint: 17.02.2019 14:00:00 - 23.02.2019 14:00:00 (GMT)Donna Nook RAF, United Kingdom (3385): wind speed & gusts: 17.02.2019 14:00:00 - 23.02.2019 14:00:00 (GMT)Donna Nook RAF, United Kingdom (3385): wind direction: 17.02.2019 14:00:00 - 23.02.2019 14:00:00 (GMT)Donna Nook RAF, United Kingdom (3385): reduced air pressure: 17.02.2019 14:00:00 - 23.02.2019 14:00:00 (GMT)Donna Nook RAF, United Kingdom (3385): visibility: 17.02.2019 14:00:00 - 23.02.2019 14:00:00 (GMT)
Date & Time tt [°C] td [°C] ff [km/h] ff [kn] fx [km/h] fx [kn] dd ppp [hPa] vv [km]
23.02.2019 14:00:00 10,5 9,4 15 8 - - S 1032,7 4,6
23.02.2019 13:00:00 9,3 8,6 21 11 - - S 1033,1 4,2
23.02.2019 12:00:00 8,9 8,6 16 9 - - S 1033,7 4,0
23.02.2019 11:00:00 8,2 8,0 16 9 - - S 1033,6 2,7
23.02.2019 10:00:00 8,0 7,7 18 10 - - SSE 1033,6 1,0
23.02.2019 09:00:00 7,9 7,7 16 9 - - SSE 1033,8 1,7
23.02.2019 08:00:00 7,8 7,6 15 8 - - S 1034,0 2,3
23.02.2019 07:00:00 7,9 7,8 18 10 - - SSE 1033,9 2,4
23.02.2019 06:00:00 8,0 7,9 22 12 - - SSE 1033,7 1,7
23.02.2019 05:00:00 8,0 7,9 22 12 - - SSE 1033,7 1,5
23.02.2019 04:00:00 7,7 7,6 22 12 - - SSE 1033,6 0,9
23.02.2019 03:00:00 7,1 7,0 26 14 - - SSE 1034,2 0,7
23.02.2019 02:00:00 6,3 6,1 22 12 - - SSE 1034,5 0,5
23.02.2019 01:00:00 6,2 5,7 26 14 - - SSE 1034,3 1,8
23.02.2019 00:00:00 6,9 6,1 16 9 - - SSE 1034,4 2,6
22.02.2019 23:00:00 7,3 6,6 21 11 - - SE 1034,4 3,2
22.02.2019 22:00:00 7,7 7,1 18 10 - - SE 1034,8 4,8
22.02.2019 21:00:00 6,8 6,3 18 10 - - SE 1034,6 4,1
22.02.2019 20:00:00 6,6 6,0 11 6 - - SE 1034,7 3,2
22.02.2019 19:00:00 7,0 6,1 15 8 - - SE 1034,8 3,7
22.02.2019 18:00:00 7,9 6,5 18 10 - - SE 1034,4 4,9
22.02.2019 17:00:00 10,0 6,3 22 12 - - SE 1034,7 10
22.02.2019 16:00:00 12,6 7,8 16 9 - - SE 1034,9 18
22.02.2019 15:00:00 15,8 8,0 15 8 - - SSE 1035,1 22
22.02.2019 14:00:00 12,9 9,2 21 11 - - SE 1034,9 10
22.02.2019 13:00:00 16,2 9,6 9 5 - - SSE 1034,6 10
22.02.2019 12:00:00 13,9 9,7 5 3 - - S 1035,2 10
22.02.2019 11:00:00 12,0 9,0 5 3 - - S 1035,0 15
22.02.2019 10:00:00 9,7 8,4 5 3 - - SSE 1034,8 11
22.02.2019 09:00:00 7,3 6,8 9 5 - - S 1034,3 8
22.02.2019 08:00:00 4,5 3,9 11 6 - - SSE 1033,5 4,7
22.02.2019 07:00:00 4,9 4,2 11 6 - - S 1032,9 4,4
22.02.2019 06:00:00 5,6 4,6 9 5 - - S 1032,4 4,3
22.02.2019 05:00:00 6,6 5,8 9 5 - - SW 1032,1 5
22.02.2019 04:00:00 7,1 6,2 9 5 - - SW 1031,6 7
22.02.2019 03:00:00 6,9 5,8 11 6 - - SW 1031,2 6
22.02.2019 02:00:00 7,5 6,5 13 7 - - SW 1030,9 7
22.02.2019 01:00:00 8,7 7,4 13 7 - - SW 1030,6 10
22.02.2019 00:00:00 8,9 7,4 15 8 - - SW 1030,1 11
21.02.2019 23:00:00 9,4 7,8 16 9 - - SSW 1029,5 13
21.02.2019 22:00:00 9,7 8,0 16 9 - - SSW 1029,1 14
21.02.2019 21:00:00 9,4 7,8 11 6 - - SSW 1028,3 7
21.02.2019 20:00:00 10,6 8,4 11 6 - - S 1027,6 10
21.02.2019 19:00:00 11,7 8,8 13 7 - - S 1027,2 17
21.02.2019 18:00:00 12,8 9,7 16 9 - - SSW 1026,2 21
21.02.2019 17:00:00 14,6 10,0 15 8 - - SSW 1025,6 28
21.02.2019 16:00:00 16,0 10,4 16 9 - - SW 1024,8 28
21.02.2019 15:00:00 16,3 10,5 21 11 - - SW 1024,2 40
21.02.2019 14:00:00 15,1 10,7 18 10 - - SW 1023,8 30
21.02.2019 13:00:00 14,2 10,4 18 10 - - SW 1023,5 26
21.02.2019 12:00:00 13,1 10,1 21 11 - - SW 1023,2 30
21.02.2019 11:00:00 12,1 9,5 16 9 - - SW 1022,8 26
21.02.2019 10:00:00 11,4 9,0 16 9 - - SW 1022,2 10
21.02.2019 09:00:00 10,4 8,3 18 10 - - SSW 1021,5 23
21.02.2019 08:00:00 9,7 7,9 24 13 - - SSW 1020,4 24
21.02.2019 07:00:00 9,0 7,3 21 11 - - SSW 1019,9 23
21.02.2019 06:00:00 9,3 7,5 24 13 - - SSW 1019,4 25
21.02.2019 05:00:00 8,4 6,9 24 13 - - SSW 1019,3 17
21.02.2019 04:00:00 9,1 7,3 22 12 - - SSW 1018,9 24
21.02.2019 03:00:00 8,8 7,3 24 13 - - S 1018,7 20
21.02.2019 02:00:00 9,2 7,6 24 13 - - SSW 1019,3 24
21.02.2019 01:00:00 8,5 7,4 26 14 46 25 SSW 1019,1 14
21.02.2019 00:00:00 8,6 6,4 24 13 - - S 1018,6 20
20.02.2019 23:00:00 9,0 6,5 26 14 - - S 1018,5 26
20.02.2019 22:00:00 9,1 6,2 21 11 48 26 SSW 1018,3 28
20.02.2019 21:00:00 9,6 6,4 28 15 - - SSW 1017,6 27
20.02.2019 20:00:00 10,1 6,4 21 11 - - S 1017,5 30
20.02.2019 19:00:00 10,1 6,4 21 11 - - S 1017,2 18
20.02.2019 18:00:00 10,6 6,0 24 13 - - SSW 1016,8 30
20.02.2019 17:00:00 10,9 5,8 21 11 - - SSW 1016,8 25
20.02.2019 16:00:00 12,0 5,6 37 20 52 28 SSW 1016,5 30
20.02.2019 15:00:00 11,7 6,6 29 16 54 29 SSW 1016,3 35
20.02.2019 14:00:00 11,8 7,2 37 20 50 27 SSW 1016,2 29
20.02.2019 13:00:00 10,9 7,0 34 18 46 25 SSW 1016,4 30
20.02.2019 12:00:00 10,7 7,0 29 16 50 27 SSW 1016,4 35
20.02.2019 11:00:00 10,0 7,3 29 16 - - SSW 1016,1 10
20.02.2019 10:00:00 8,9 6,6 29 16 - - SSW 1015,7 30
20.02.2019 09:00:00 8,4 6,4 24 13 - - S 1015,3 10
20.02.2019 08:00:00 7,8 6,2 22 12 - - S 1014,8 24
20.02.2019 07:00:00 7,5 6,0 24 13 - - S 1014,4 25
20.02.2019 06:00:00 7,3 5,9 26 14 - - S 1014,2 23
20.02.2019 05:00:00 6,9 5,8 22 12 - - S 1014,2 20
20.02.2019 04:00:00 6,8 5,9 22 12 - - S 1014,4 13
20.02.2019 03:00:00 6,7 5,8 22 12 - - S 1014,7 17
20.02.2019 02:00:00 6,7 5,5 16 9 - - S 1015,2 17
20.02.2019 01:00:00 6,9 5,2 16 9 - - S 1015,6 19
20.02.2019 00:00:00 7,0 4,5 16 9 - - S 1015,7 10
19.02.2019 23:00:00 7,6 4,1 18 10 - - S 1015,7 30
19.02.2019 22:00:00 7,8 3,7 22 12 - - SSW 1015,7 30
19.02.2019 21:00:00 7,2 4,2 13 7 - - S 1015,8 30
19.02.2019 20:00:00 7,5 4,2 18 10 - - S 1015,9 40
19.02.2019 19:00:00 7,8 3,9 16 9 - - SSW 1016,0 30
19.02.2019 18:00:00 7,7 4,0 15 8 - - S 1015,7 20
19.02.2019 17:00:00 7,7 3,7 16 9 - - SSW 1015,5 35
19.02.2019 16:00:00 9,7 3,4 24 13 - - SW 1015,7 35
19.02.2019 15:00:00 9,4 3,5 21 11 - - SW 1015,8 30
19.02.2019 14:00:00 10,7 3,1 28 15 - - SW 1015,7 35
19.02.2019 13:00:00 10,2 2,9 29 16 48 26 SW 1015,6 45
19.02.2019 12:00:00 9,9 3,3 28 15 - - SW 1015,7 30
19.02.2019 11:00:00 9,0 4,4 28 15 - - SW 1015,5 30
19.02.2019 10:00:00 8,1 5,0 26 14 - - SW 1015,2 45
19.02.2019 09:00:00 7,1 4,7 22 12 - - SW 1014,8 10
19.02.2019 08:00:00 6,9 4,6 18 10 - - SSW 1014,4 29
19.02.2019 07:00:00 6,5 4,5 13 7 - - SSW 1013,7 27
19.02.2019 06:00:00 6,9 4,5 22 12 - - SW 1012,9 35
19.02.2019 05:00:00 6,5 4,2 22 12 - - SW 1012,3 40
19.02.2019 04:00:00 5,6 3,9 22 12 - - SW 1012,1 30
19.02.2019 03:00:00 5,4 3,5 24 13 - - SSW 1012,0 30
19.02.2019 02:00:00 5,6 3,3 29 16 - - SSW 1011,8 24
19.02.2019 01:00:00 5,7 3,3 26 14 - - SSW 1011,5 29
19.02.2019 00:00:00 5,9 3,2 26 14 - - SSW 1011,5 10
18.02.2019 23:00:00 5,0 2,8 22 12 - - SSW 1011,3 22
18.02.2019 22:00:00 6,1 3,1 24 13 - - SSW 1011,4 28
18.02.2019 21:00:00 6,5 3,8 24 13 - - SSW 1011,3 28
18.02.2019 20:00:00 6,8 4,3 29 16 - - SSW 1010,8 35
18.02.2019 19:00:00 7,2 4,6 24 13 - - S 1010,5 29
18.02.2019 18:00:00 7,9 5,4 24 13 - - S 1010,5 28
18.02.2019 17:00:00 8,4 5,6 16 9 - - S 1010,2 40
18.02.2019 16:00:00 9,0 6,4 22 12 - - SSW 1010,2 30
18.02.2019 15:00:00 7,7 4,5 29 16 54 29 SW 1010,5 7
18.02.2019 14:00:00 10,7 5,5 34 18 46 25 SSW 1010,1 10
18.02.2019 13:00:00 10,6 6,9 34 18 50 27 SSW 1010,9 10
18.02.2019 12:00:00 10,4 7,3 29 16 48 26 S 1011,4 22
18.02.2019 11:00:00 8,9 7,0 26 14 - - S 1011,8 21
18.02.2019 10:00:00 8,1 6,7 22 12 - - S 1011,9 18
18.02.2019 09:00:00 7,3 6,4 21 11 - - S 1012,2 15
18.02.2019 08:00:00 6,8 6,0 15 8 - - S 1012,2 15
18.02.2019 07:00:00 6,8 5,9 16 9 - - S 1012,0 14
18.02.2019 06:00:00 6,5 5,9 24 13 - - S 1012,0 12
18.02.2019 05:00:00 6,0 5,5 21 11 - - S 1012,2 11
18.02.2019 04:00:00 5,8 5,1 18 10 - - S 1012,4 12
18.02.2019 03:00:00 6,0 5,2 16 9 - - S 1012,9 12
18.02.2019 02:00:00 7,1 5,9 21 11 - - S 1013,2 16
18.02.2019 01:00:00 7,3 5,9 22 12 - - S 1013,1 16
18.02.2019 00:00:00 8,0 6,3 22 12 - - S 1013,1 10
17.02.2019 23:00:00 8,4 6,6 28 15 - - S 1013,0 17
17.02.2019 22:00:00 8,6 6,9 22 12 - - S 1012,9 18
17.02.2019 21:00:00 9,7 7,4 24 13 - - S 1012,6 21
17.02.2019 20:00:00 10,2 7,6 18 10 - - S 1012,3 21
17.02.2019 19:00:00 10,6 8,3 16 9 - - S 1012,3 25
17.02.2019 18:00:00 11,3 8,3 16 9 - - S 1011,6 22
17.02.2019 17:00:00 12,2 8,2 16 9 - - S 1011,2 24
17.02.2019 16:00:00 12,8 8,3 18 10 - - S 1011,1 21
17.02.2019 15:00:00 13,5 8,2 28 15 - - SSW 1011,1 20
17.02.2019 14:00:00 13,2 7,4 26 14 50 27 S 1011,2 18

tt = temperature
td = dewpoint
ff = wind speed
fx = gusts
dd = wind direction
ppp = reduced air pressure
vv = visibility

Next stations